Location: Pallagorio
(39.3000°N, 16.9000°E)
Time: 01:13:58
(UTC+00:00)

Daily predictions for brighter satellites

Satellite Brightness Start Highest point End
(mag) Time Altitude Azimuth Time Altitude Azimuth Time Altitude Azimuth
NPP 4.5 00:00:42 10° NNE 00:05:43 38° E 00:06:27 37° ESE
CZ-4C R/B 4.1 00:05:33 14° ESE 00:05:54 14° ESE 00:08:26 10° ENE
GEOS 3 Rocket 3.5 00:07:39 83° WSW 00:07:39 83° WSW 00:12:51 10° NW
SL-08 ROCKET BODY 4.5 00:08:22 57° SE 00:09:17 65° E 00:15:04 10° NNE
COSMOS 2455 3.5 00:11:40 41° W 00:12:50 45° NW 00:18:36 10° NNE
Cosmos 2058 Rocket 3.7 00:10:22 10° NNW 00:13:46 49° NW 00:13:46 49° NW
Cosmos 2084 4.0 00:15:46 56° ENE 00:15:46 56° ENE 00:19:29 10° NE
IRAS Rocket 4.2 00:17:53 64° WSW 00:17:56 64° WSW 00:23:28 10° NNW
SJ 16-02 3.8 00:15:29 10° NNE 00:18:39 19° ENE 00:21:49 10° ESE
Cosmos 1386 Rocket 4.4 00:18:10 59° SSE 00:19:19 76° E 00:25:25 10° N
Cosmos 921 Rocket 3.4 00:23:34 56° NNW 00:23:34 56° NNW 00:27:10 10° N
Cosmos 1300 4.0 00:22:41 10° NNW 00:25:04 35° NNW 00:25:04 35° NNW
Meteor 2-16 Rocket 4.4 00:27:44 57° SW 00:28:40 65° W 00:34:46 10° N
Cosmos 1626 Rocket 3.6 00:29:36 71° N 00:29:36 71° N 00:33:30 10° N
Cosmos 1626 4.0 00:34:31 23° NW 00:34:31 23° NW 00:36:31 10° NNW
Cosmos 2219 4.0 00:30:12 10° NNW 00:35:41 48° ENE 00:40:26 13° SE
FALCON 9 R/B 3.6 00:38:25 34° WSW 00:42:06 69° S 01:06:47 10° E
Cosmos 192 4.3 00:41:36 67° SSE 00:42:09 76° ESE 00:47:07 10° NNE
STARLINK-1338 4.4 00:44:16 39° ENE 00:44:16 39° ENE 00:46:37 10° NE
MOZ.5/SAFIR/RUBIN 5/SL-8 3.8 00:44:16 62° W 00:44:16 62° W 00:48:41 10° NNW
Nadezhda 1 Rocket 3.9 00:38:05 10° N 00:44:14 73° W 00:45:52 50° SSW
UNK 3.6 00:44:00 76° S 00:44:21 86° WSW 00:48:59 10° NNW
Cosmos 220 Rocket 4.4 00:46:16 50° WNW 00:46:16 50° WNW 00:50:31 10° N
STARLINK-1371 4.1 00:48:05 45° ENE 00:48:05 45° ENE 00:50:38 10° NE
STARLINK-1340 4.5 00:49:53 34° NE 00:49:53 34° NE 00:51:48 10° NE
STARLINK-1356 4.5 00:50:13 34° NE 00:50:13 34° NE 00:52:08 10° NE
STARLINK-1341 4.0 00:50:03 48° ENE 00:50:03 48° ENE 00:52:41 10° NE
STARLINK-1345 4.5 00:50:33 35° NE 00:50:33 35° NE 00:52:29 10° NE
STARLINK-1355 4.4 00:50:51 35° NE 00:50:51 35° NE 00:52:49 10° NE
STARLINK-1321 4.4 00:51:10 35° NE 00:51:10 35° NE 00:53:09 10° NE
STARLINK-1358 4.4 00:51:31 36° NE 00:51:31 36° NE 00:53:30 10° NE
STARLINK-1332 4.4 00:51:49 36° NE 00:51:49 36° NE 00:53:49 10° NE
STARLINK-1348 4.4 00:52:10 36° NE 00:52:10 36° NE 00:54:10 10° NE
STARLINK-1374 3.9 00:51:59 51° ENE 00:51:59 51° ENE 00:54:43 10° NE
Cosmos 2297 Rocket 2.9 00:45:51 10° NNW 00:51:21 51° ENE 00:56:50 10° SE
STARLINK-1330 4.4 00:52:29 37° NE 00:52:29 37° NE 00:54:30 10° NE
SL-4 R/B 4.0 00:49:12 19° WNW 00:51:41 30° NNW 00:55:51 10° NE
STARLINK-1363 4.3 00:52:48 37° NE 00:52:48 37° NE 00:54:49 10° NE
STARLINK-1337 4.3 00:53:07 37° NE 00:53:07 37° NE 00:55:10 10° NE
STARLINK-1342 4.3 00:53:27 38° NE 00:53:27 38° NE 00:55:31 10° NE
AQUA 3.7 00:47:44 10° NNE 00:52:31 85° ESE 00:53:18 63° S
STARLINK-1364 4.3 00:53:47 38° NE 00:53:47 38° NE 00:55:51 10° NE
STARLINK-1376 4.3 00:54:07 38° NE 00:54:07 38° NE 00:56:12 10° NE
STARLINK-1339 3.8 00:54:00 54° NE 00:54:00 54° NE 00:56:48 10° NE
STARLINK-1360 4.2 00:54:22 39° NE 00:54:22 39° NE 00:56:28 10° NE
STARLINK-1361 4.2 00:54:48 39° NE 00:54:48 39° NE 00:56:54 10° NE
Cosmos 1812 Rocket 3.4 00:49:30 10° N 00:54:00 89° WNW 00:54:30 71° S
STARLINK-1367 4.2 00:55:02 40° NE 00:55:02 40° NE 00:57:13 10° NE
CZ-4B R/B 3.4 00:48:53 10° NNE 00:54:04 87° W 00:55:16 55° SSW
STARLINK-1366 4.2 00:55:25 40° NE 00:55:25 40° NE 00:57:33 10° NE
STARLINK-1377 3.7 00:56:00 58° NE 00:56:00 58° NE 00:58:53 10° NE
STARLINK-1353 3.6 00:57:56 60° NE 00:57:56 60° NE 01:00:51 10° NE
SL-16 R/B 2.5 00:56:01 44° SSW 00:57:57 66° WSW 01:04:06 10° NNW
ATLAS CENTAUR R/B 3.6 00:56:56 15° WNW 00:58:05 16° NW 01:00:47 10° N
STARLINK-1375 3.5 00:59:43 63° NE 00:59:43 63° NE 01:02:43 10° NE
CBERS-1 4.1 00:55:21 10° NNE 01:00:29 71° ESE 01:02:06 43° S
STARLINK-1350 3.4 01:01:59 66° NNE 01:01:59 66° NNE 01:05:05 10° NE
Cosmos 1602 Rocket 3.9 01:01:58 46° W 01:01:58 46° W 01:06:09 10° N
Cosmos 1825 Rocket 3.8 01:01:14 48° SSE 01:02:10 62° E 01:06:26 10° NNE
FALCON 9 DEB 4.4 01:02:08 32° NW 01:02:16 32° NNW 01:05:26 10° NNE
BREEZE-M R/B 3.8 01:01:07 30° WNW 01:02:28 39° NNW 01:05:23 10° NE
Timation 2 Rocket 4.1 00:57:10 10° NW 01:03:12 50° WSW 01:04:30 43° SW
STARLINK-1352 3.4 01:04:09 68° N 01:04:09 68° N 01:07:23 10° NE
Alouette 2 Rocket 4.1 00:59:08 10° N 01:05:08 67° ENE 01:07:09 31° SSE
STARLINK-1368 3.3 01:06:14 68° N 01:06:14 68° N 01:09:33 10° NE
BREEZE-M DEB (TANK) 3.8 01:05:40 33° SSE 01:06:58 41° ESE 01:17:11 10° ENE
STARLINK-1369 3.3 01:08:12 66° NNW 01:08:12 66° NNW 01:11:34 10° NE
BREEZE-M DEB (TANK) 3.8 01:09:30 25° NNE 01:09:30 25° NNE 01:10:50 10° NE
Cosmos 1455 2.2 01:05:11 10° N 01:08:55 75° E 01:09:23 64° SE
STARLINK-1372 3.4 01:10:26 64° NW 01:10:26 64° NW 01:13:54 10° NE
ATLAS 3B R/B 3.0 01:04:13 10° NW 01:10:39 44° WSW 01:12:43 35° SSW
STARLINK-1378 3.4 01:12:32 61° NW 01:12:36 61° NW 01:16:07 10° NE
STARLINK-1329 3.4 01:12:59 60° NW 01:13:05 61° NW 01:16:36 10° NE
IRS-1D 3.5 01:07:57 10° NNE 01:13:19 88° WNW 01:15:16 41° SSW
STARLINK-1365 3.5 01:13:46 56° NW 01:13:56 56° NW 01:17:25 10° NE
BREEZE-M DEB (TANK) 4.2 01:13:10 10° NNW 01:14:03 11° N 01:14:55 10° NNE
CENTAUR R/B 4.2 01:08:04 10° WNW 01:14:28 24° WSW 01:14:47 24° WSW
STARLINK-1379 3.4 01:14:39 57° NW 01:14:49 58° NW 01:18:19 10° NE
GP-B 3.0 01:10:33 10° N 01:15:00 84° W 01:16:11 49° S
STARLINK-1362 3.4 01:15:10 56° NW 01:15:22 58° NW 01:18:52 10° NE
Meteor 2-1 Rocket 4.3 01:11:01 10° NNW 01:16:23 55° W 01:18:03 40° SSW
STARLINK-1373 3.5 01:17:22 53° WNW 01:17:39 55° NW 01:21:10 10° NE
Cosmos-2242 3.1 01:14:20 10° N 01:18:36 70° E 01:20:32 31° SSE
SL-08 R/B 4.1 01:15:14 11° SSE 01:19:38 50° ENE 01:24:08 10° N
STARLINK-1390 3.6 01:19:27 49° WNW 01:19:50 52° NW 01:23:18 10° NE
RESURS DK-1 4.5 01:19:17 15° WNW 01:20:10 16° NW 01:22:42 10° NNW
Cosmos 2181 Rocket 4.0 01:18:58 10° N 01:25:26 89° E 01:30:28 18° S
Cosmos 1763 Rocket 3.4 01:23:45 40° SSW 01:25:37 77° WNW 01:30:44 10° NNE
Cosmos 1697 Rocket 2.7 01:23:11 33° S 01:25:51 76° ESE 01:31:32 10° NNE
Cosmos 2227 Rocket 2.2 01:21:17 10° NNW 01:26:59 87° ENE 01:32:39 10° SSE
Cosmos 1703 3.2 01:26:48 53° SW 01:27:33 69° W 01:31:30 10° N
IRS-P3 4.1 01:22:46 10° NNE 01:28:08 89° ESE 01:30:49 31° SSW
CZ-2D R/B 3.1 01:24:01 10° N 01:28:36 32° WNW 01:30:15 26° W
ADEOS II 2.0 01:26:18 10° N 01:31:34 79° WNW 01:34:07 32° SSW
Resurs 1-4 Rocket 3.4 01:33:59 10° NNW 01:38:17 26° WNW 01:40:11 21° W
STARLINK-1228 2.9 01:34:59 10° NW 01:38:18 62° SW 01:41:36 10° SE
Cosmos 1758 Rocket 4.2 01:39:23 33° WSW 01:40:23 37° WNW 01:44:27 10° N
STARLINK-1212 2.7 01:37:44 10° NW 01:40:51 89° ENE 01:43:57 10° SE
STARLINK-1105 2.7 01:38:13 10° NW 01:41:19 90° SE 01:44:24 10° SE
STARLINK-1247 2.7 01:39:07 10° NW 01:42:15 88° SW 01:45:21 10° SE
H-2A R/B 3.3 01:38:20 10° SE 01:42:23 42° ENE 01:46:32 10° N
STARLINK-1227 2.7 01:39:35 10° NW 01:42:41 87° SW 01:45:45 10° SE
STARLINK-1226 2.7 01:40:26 10° NW 01:43:33 85° SW 01:46:40 10° SE
CZ-2C R/B 4.3 01:40:19 10° NE 01:43:35 29° E 01:46:43 11° SSE
ARIANE 5 R/B 2.5 01:38:38 10° NNE 01:43:43 83° ESE 01:46:54 23° S
STARLINK-1215 2.7 01:41:23 10° NW 01:44:30 83° SW 01:47:37 10° SE
STARLINK-1217 2.7 01:43:09 10° NW 01:46:16 79° SW 01:49:22 10° SE
STARLINK-1229 2.7 01:44:04 10° NW 01:47:11 78° SW 01:50:17 10° SE
STARLINK-1270 2.7 01:44:56 10° NW 01:48:03 76° SW 01:51:09 10° SE
Spot 4 Rocket 4.3 01:44:20 10° NNE 01:49:28 68° ESE 01:53:32 16° S
STARLINK-1189 2.7 01:46:47 10° NW 01:49:53 72° SW 01:52:59 10° SE
STARLINK-1188 2.7 01:47:40 10° NW 01:50:46 70° SW 01:53:52 10° SE
STARLINK-1235 2.9 01:48:23 10° WNW 01:51:24 49° SW 01:54:24 10° SSE
STARLINK-1187 2.8 01:48:47 10° WNW 01:51:50 57° SW 01:54:53 10° SE
Cosmos 1898 Rocket 3.5 01:46:46 10° NNW 01:52:01 60° WSW 01:57:04 11° S
STARLINK-1191 2.7 01:50:09 10° NW 01:53:13 65° SW 01:56:16 10° SE
CZ-4C R/B 2.1 01:50:43 27° SW 01:53:23 67° NW 01:59:06 10° NNE
Lacrosse 4 Rocket 2.9 01:49:47 10° NNW 01:53:51 39° ENE 01:57:48 10° SE
STARLINK-1221 2.7 01:51:00 10° NW 01:54:05 64° SW 01:57:09 10° SE
STARLINK-1222 2.7 01:51:55 10° NW 01:54:59 62° SW 01:58:02 10° SE
STARLINK-1214 2.7 01:52:49 10° NW 01:55:53 61° SW 01:58:56 10° SE
Cosmos 1570 Rocket 4.1 01:53:01 25° SSW 01:56:08 67° WNW 02:01:26 10° NNE
STARLINK-1154 4.4 01:52:30 10° NW 01:56:34 54° NE 02:00:38 10° ESE
Cosmos 1953 Rocket 4.0 01:54:38 28° SW 01:56:39 47° W 02:00:58 10° N
IDEFIX/ARIANE 42P 3.2 01:51:57 10° NNE 01:57:09 55° E 02:02:17 10° S
SJ 16-02 1.9 01:53:16 10° NW 01:57:21 37° W 01:59:16 25° SSW
Cosmos 2285 Rocket 4.0 01:51:17 10° NNW 01:57:41 85° WSW 02:03:59 10° SSE
Cosmos 2208 Rocket 4.0 01:55:43 23° SSW 01:59:01 76° WNW 02:04:19 10° NNE
Cosmos 2369 3.8 01:55:55 24° SW 01:59:19 61° WNW 02:04:56 10° NNE
STARLINK-1197 4.2 01:57:27 10° NW 02:01:33 59° NE 02:05:39 10° ESE
Cosmos 2360 4.2 01:58:24 21° SSW 02:02:15 78° WNW 02:07:57 10° NNE
Cosmos 1937 Rocket 3.4 01:57:05 10° NNW 02:02:18 68° WSW 02:07:32 10° S
STARLINK 1040 3.7 02:05:28 24° S 02:06:16 30° SE 02:08:34 10° ENE
STARLINK-1198 4.0 02:02:23 10° NW 02:06:31 65° NE 02:10:37 10° ESE
Cosmos 1842 Rocket 4.1 02:03:46 10° N 02:08:14 63° E 02:12:39 10° SSE
STARLINK-1199 3.9 02:07:23 10° NW 02:11:33 71° NE 02:15:40 10° SE
Iridium 2 3.6 02:09:33 10° N 02:13:18 82° W 02:17:03 10° S
Cosmos 1814 Rocket 4.2 02:11:05 18° SW 02:14:59 62° WNW 02:20:18 10° NNE
USA 129 1.7 02:13:38 10° NNE 02:15:07 44° ENE 02:15:07 44° ENE
STARLINK-1210 3.7 02:12:21 10° NW 02:16:30 78° NE 02:20:38 10° SE
Cosmos 1980 Rocket 2.2 02:13:40 16° SSW 02:18:10 76° WNW 02:23:49 10° NNE
IRIDIUM 114 4.4 02:13:36 10° S 02:18:49 87° E 02:24:04 10° N
Cosmos 2219 4.4 02:15:10 10° NW 02:19:26 22° W 02:22:14 15° SW
CZ-4B R/B 4.1 02:17:34 10° ESE 02:19:53 20° ENE 02:22:12 10° NNE
STARLINK-1219 3.6 02:17:19 10° NW 02:21:29 86° NE 02:25:37 10° SE
STARLINK-43 3.4 02:19:29 19° SW 02:21:57 68° SE 02:25:36 10° NE
ERS-2 2.5 02:19:07 13° S 02:22:08 41° W 02:25:38 10° NNW
CZ-2C R/B 4.2 02:18:04 10° NNE 02:22:41 33° E 02:27:18 10° SSE
Nadezhda 3 Rocket 4.1 02:16:35 10° N 02:22:52 84° E 02:29:13 10° S
STARLINK-1211 3.6 02:22:17 10° NW 02:26:27 86° SW 02:30:35 10° SE
IRIDIUM 103 4.3 02:22:47 10° S 02:27:59 77° W 02:33:13 10° N
STARLINK-1245 3.5 02:27:17 10° NW 02:31:26 79° SW 02:35:33 10° SE
Cosmos 2297 Rocket 3.4 02:30:52 10° NW 02:34:57 21° W 02:39:00 10° SSW
Cosmos 1076 Rocket 3.7 02:31:22 10° S 02:35:41 76° E 02:40:04 10° N
STARLINK-1233 3.5 02:32:15 10° NW 02:36:23 71° SW 02:40:30 10° SE
Cosmos 540 Rocket 4.3 02:32:22 13° SW 02:36:24 35° WNW 02:41:06 10° N
STARLINK-55 4.2 02:35:27 11° SSW 02:38:17 33° SE 02:41:13 10° ENE
Landsat 5 3.7 02:34:31 10° S 02:38:55 59° W 02:43:24 10° NNW
Cosmos 2082 4.1 02:33:43 10° NW 02:38:56 40° WSW 02:44:07 10° S
Cosmos 2278 4.4 02:36:08 12° SW 02:40:59 41° WNW 02:46:19 10° N
STARLINK-1204 3.6 02:37:16 10° NW 02:41:22 64° SW 02:45:27 10° SE
Meteor 1-28 Rocket 4.3 02:38:55 10° SSW 02:42:05 25° W 02:45:14 10° NW
USA 234 3.3 02:37:41 10° NE 02:44:14 82° NW 02:50:46 10° SW
STARLINK-1238 3.6 02:42:14 10° WNW 02:46:19 58° SW 02:50:21 10° SE
STARLINK-28 3.6 02:45:09 10° SSW 02:48:14 48° SE 02:51:20 10° ENE
Cosmos 2322 Rocket 3.2 02:43:28 10° S 02:48:48 45° ESE 02:54:07 10° NE
ATLAS CENTAUR R/B 3.7 02:45:42 10° WNW 02:49:55 35° SW 02:59:26 10° SSE
Cosmos 2263 Rocket 3.0 02:45:37 10° NNW 02:51:09 56° ENE 02:56:37 10° SE
STARLINK-1201 3.7 02:47:15 10° WNW 02:51:17 52° SW 02:55:18 10° SSE
Cosmos 1892 2.7 02:48:02 10° SSW 02:51:51 69° W 02:55:40 10° N
Cosmos 372 Rocket 4.1 02:47:36 10° NNW 02:52:35 53° WSW 02:57:34 10° S
COSMOS 2441 4.5 02:50:55 10° N 02:55:48 68° WNW 03:00:40 10° SSW
In-Cosmos 22 Rocket 4.3 02:50:23 10° SSW 02:56:07 67° W 03:01:45 10° N
STARLINK-1206 3.9 02:52:16 10° WNW 02:56:15 46° SW 03:00:13 10° SSE
Cosmos 1869 3.5 02:52:51 10° NNW 02:56:36 47° W 03:00:18 10° SSW
Cosmos 1400 Rocket 4.4 02:54:06 10° NW 02:57:04 19° W 03:00:01 10° SW
PSLV R/B 3.5 02:53:45 10° N 02:57:58 78° WNW 03:02:09 10° SSW
Cosmos 2221 3.0 02:53:55 10° NNW 02:58:00 42° W 03:02:05 10° SSW
CZ-4C R/B 4.2 02:55:04 10° SSW 02:58:02 24° W 03:01:02 10° NW
STARLINK-1289 4.5 02:56:36 10° SSW 02:59:30 30° SE 03:02:25 10° ENE
STARLINK-41 3.7 02:56:55 10° SSW 02:59:55 44° SE 03:02:56 10° ENE
STARLINK-1205 4.0 02:57:17 10° WNW 03:01:12 42° SW 03:05:07 10° SSE
CZ-3 R/B 4.2 02:43:42 10° SW 03:05:37 31° S 03:13:11 10° ESE
